Terminal Aerodrome Forecast
Issued by NWS Louisville, KY

Home | Current Version | Previous Version | Text Only | Print | Product List | Glossary On
Versions: 1 2 3 4 5 6 7 8 9 10 11 12 13
802
FTUS43 KLMK 191720
TAFLEX
TAF
KLEX 191720Z 1918/2018 30011G18KT P6SM OVC023
     FM192100 28012KT P6SM BKN035
     FM200000 23004KT P6SM SKC=

USA.gov is the U.S. government's official web portal to all federal, state and local government web resources and services.